When you browse on this site, cookies collect data to enhance your experience and personalize the content and advertising you see.
Visit our Privacy Policy to learn more. By continuing to use the site, you agree to this use of cookies and data.
  • In Latvia
  • List of Countries
  • For 7 days
  • Water Temperature
  • Weather Map
  • Weather Widgets
  • user-avatar
    Login

    Hourly Weather Cham

    Today, 17 September, Tuesday

    Time Temperature Precipitation Wind Pressure Humidity
    00:00 +19°C° 0 mm 1 mps 727 mmHg 90%
    01:00 +16°C° 0 mm 0 mps 727 mmHg 90%
    02:00 +18°C° 0 mm 1 mps 727 mmHg 90%
    03:00 +18°C° 0 mm 1 mps 727 mmHg 91%
    04:00 +18°C° 0 mm 1 mps 726 mmHg 91%
    05:00 +16°C° 0.1 mm 0 mps 726 mmHg 91%
    06:00 +16°C° 0.1 mm 0 mps 726 mmHg 91%
    07:00 +17°C° 0 mm 0 mps 727 mmHg 93%
    08:00 +18°C° 0.1 mm 0 mps 727 mmHg 86%
    09:00 +22°C° 0.1 mm 1 mps 727 mmHg 80%
    10:00 +23°C° 0.1 mm 1 mps 727 mmHg 73%
    11:00 +24°C° 0.1 mm 1 mps 727 mmHg 67%
    12:00 +25°C° 0.1 mm 1 mps 727 mmHg 61%
    13:00 +26°C° 0 mm 2 mps 727 mmHg 54%
    14:00 +26°C° 0 mm 2 mps 726 mmHg 55%
    15:00 +25°C° 0 mm 2 mps 726 mmHg 56%
    16:00 +25°C° 0 mm 2 mps 726 mmHg 57%
    17:00 +23°C° 0 mm 2 mps 726 mmHg 68%
    18:00 +20°C° 0 mm 1 mps 726 mmHg 79%
    19:00 +16°C° 0 mm 0 mps 726 mmHg 90%
    20:00 +18°C° 0 mm 1 mps 726 mmHg 89%
    21:00 +18°C° 0 mm 1 mps 727 mmHg 88%
    22:00 +18°C° 0 mm 1 mps 727 mmHg 86%
    23:00 +16°C° 0 mm 2 mps 727 mmHg 84%

    Tomorrow, 18 September, Wednesday

    Time Temperature Precipitation Wind Pressure Humidity
    00:00 +16°C° 0 mm 2 mps 727 mmHg 81%
    01:00 +16°C° 0 mm 2 mps 727 mmHg 79%
    02:00 +15°C° 0 mm 2 mps 727 mmHg 81%
    03:00 +14°C° 0 mm 2 mps 727 mmHg 83%
    04:00 +13°C° 0 mm 1 mps 726 mmHg 85%
    05:00 +13°C° 0 mm 1 mps 727 mmHg 85%
    06:00 +13°C° 0 mm 2 mps 727 mmHg 85%
    07:00 +12°C° 0 mm 2 mps 727 mmHg 85%
    08:00 +14°C° 0 mm 2 mps 727 mmHg 80%
    09:00 +15°C° 0 mm 2 mps 727 mmHg 75%
    10:00 +16°C° 0 mm 2 mps 727 mmHg 71%
    11:00 +17°C° 0 mm 3 mps 727 mmHg 68%
    12:00 +18°C° 0 mm 3 mps 727 mmHg 65%
    13:00 +19°C° 0 mm 3 mps 727 mmHg 63%
    14:00 +19°C° 0 mm 3 mps 727 mmHg 62%
    15:00 +19°C° 0 mm 3 mps 727 mmHg 62%
    16:00 +18°C° 0 mm 3 mps 727 mmHg 62%
    17:00 +17°C° 0 mm 3 mps 727 mmHg 65%
    18:00 +14°C° 0 mm 3 mps 727 mmHg 68%
    19:00 +14°C° 0 mm 2 mps 727 mmHg 72%
    20:00 +13°C° 0 mm 2 mps 728 mmHg 76%
    21:00 +12°C° 0 mm 1 mps 728 mmHg 80%
    22:00 +10°C° 0 mm 1 mps 728 mmHg 84%
    23:00 +10°C° 0 mm 1 mps 728 mmHg 86%

    Day after tomorrow, 19 September, Thursday

    Time Temperature Precipitation Wind Pressure Humidity
    00:00 +9°C° 0 mm 1 mps 728 mmHg 87%
    01:00 +9°C° 0 mm 1 mps 728 mmHg 89%
    02:00 +8°C° 0 mm 1 mps 728 mmHg 89%
    03:00 +8°C° 0 mm 1 mps 728 mmHg 90%
    04:00 +8°C° 0 mm 1 mps 728 mmHg 91%
    05:00 +8°C° 0 mm 1 mps 728 mmHg 90%
    06:00 +8°C° 0 mm 1 mps 728 mmHg 89%
    07:00 +8°C° 0 mm 1 mps 728 mmHg 88%
    08:00 +10°C° 0 mm 1 mps 728 mmHg 80%
    09:00 +12°C° 0 mm 2 mps 729 mmHg 71%
    10:00 +14°C° 0 mm 2 mps 729 mmHg 63%
    11:00 +16°C° 0 mm 3 mps 729 mmHg 60%
    12:00 +17°C° 0 mm 3 mps 729 mmHg 56%
    13:00 +18°C° 0 mm 3 mps 729 mmHg 52%
    14:00 +18°C° 0 mm 3 mps 729 mmHg 53%
    15:00 +18°C° 0 mm 4 mps 729 mmHg 54%
    16:00 +18°C° 0 mm 4 mps 729 mmHg 55%
    17:00 +16°C° 0 mm 3 mps 729 mmHg 63%
    18:00 +13°C° 0 mm 3 mps 729 mmHg 72%
    19:00 +12°C° 0 mm 2 mps 729 mmHg 80%
    20:00 +10°C° 0 mm 2 mps 729 mmHg 82%
    21:00 +10°C° 0 mm 1 mps 730 mmHg 84%
    22:00 +9°C° 0 mm 1 mps 730 mmHg 87%
    23:00 +9°C° 0 mm 1 mps 730 mmHg 88%

    20 September, Friday

    Time Temperature Precipitation Wind Pressure Humidity
    00:00 +8°C° 0 mm 1 mps 730 mmHg 88%
    01:00 +8°C° 0 mm 1 mps 729 mmHg 89%
    02:00 +8°C° 0 mm 1 mps 729 mmHg 90%
    03:00 +6°C° 0 mm 0 mps 729 mmHg 91%
    04:00 +6°C° 0 mm 0 mps 729 mmHg 91%
    05:00 +6°C° 0 mm 0 mps 729 mmHg 90%
    06:00 +7°C° 0 mm 0 mps 729 mmHg 89%
    07:00 +7°C° 0 mm 0 mps 729 mmHg 88%
    08:00 +10°C° 0 mm 1 mps 729 mmHg 80%
    09:00 +13°C° 0 mm 1 mps 729 mmHg 71%
    10:00 +15°C° 0 mm 1 mps 729 mmHg 62%
    11:00 +16°C° 0 mm 2 mps 729 mmHg 59%
    12:00 +18°C° 0 mm 2 mps 729 mmHg 55%
    13:00 +19°C° 0 mm 2 mps 728 mmHg 52%
    14:00 +19°C° 0 mm 2 mps 728 mmHg 54%
    15:00 +19°C° 0 mm 2 mps 728 mmHg 55%
    16:00 +19°C° 0 mm 2 mps 728 mmHg 57%
    17:00 +17°C° 0 mm 2 mps 728 mmHg 67%
    18:00 +15°C° 0 mm 1 mps 728 mmHg 77%
    19:00 +12°C° 0 mm 1 mps 728 mmHg 86%
    20:00 +12°C° 0 mm 1 mps 728 mmHg 88%
    21:00 +11°C° 0 mm 1 mps 728 mmHg 90%
    22:00 +11°C° 0 mm 1 mps 728 mmHg 92%
    23:00 +11°C° 0 mm 1 mps 728 mmHg 91%

    21 September, Saturday

    Time Temperature Precipitation Wind Pressure Humidity
    00:00 +11°C° 0 mm 1 mps 728 mmHg 91%
    01:00 +11°C° 0 mm 1 mps 728 mmHg 91%
    02:00 +10°C° 0 mm 1 mps 728 mmHg 91%
    03:00 +10°C° 0 mm 1 mps 728 mmHg 90%
    04:00 +10°C° 0 mm 1 mps 728 mmHg 89%
    05:00 +11°C° 0 mm 1 mps 727 mmHg 88%
    06:00 +11°C° 0 mm 1 mps 727 mmHg 86%
    07:00 +11°C° 0 mm 1 mps 727 mmHg 85%
    08:00 +14°C° 0 mm 1 mps 728 mmHg 76%
    09:00 +18°C° 0 mm 1 mps 728 mmHg 67%
    10:00 +21°C° 0 mm 1 mps 728 mmHg 58%
    11:00 +23°C° 0 mm 1 mps 728 mmHg 55%
    12:00 +25°C° 0 mm 1 mps 728 mmHg 51%
    13:00 +26°C° 0 mm 1 mps 727 mmHg 48%
    14:00 +26°C° 0 mm 1 mps 727 mmHg 50%
    15:00 +26°C° 0 mm 1 mps 727 mmHg 53%
    16:00 +26°C° 0 mm 1 mps 727 mmHg 55%
    17:00 +24°C° 0 mm 1 mps 727 mmHg 62%
    18:00 +22°C° 0 mm 1 mps 727 mmHg 68%
    19:00 +19°C° 0 mm 2 mps 727 mmHg 75%
    20:00 +18°C° 0 mm 2 mps 726 mmHg 77%
    21:00 +17°C° 0 mm 2 mps 726 mmHg 78%
    22:00 +16°C° 0 mm 2 mps 726 mmHg 80%
    23:00 +16°C° 0 mm 2 mps 726 mmHg 81%

    22 September, Sunday

    Time Temperature Precipitation Wind Pressure Humidity
    00:00 +16°C° 0 mm 1 mps 726 mmHg 81%
    01:00 +15°C° 0 mm 1 mps 726 mmHg 81%
    02:00 +15°C° 0 mm 1 mps 725 mmHg 81%
    03:00 +15°C° 0 mm 1 mps 725 mmHg 81%
    04:00 +15°C° 0 mm 1 mps 725 mmHg 81%
    05:00 +15°C° 0 mm 1 mps 725 mmHg 80%
    06:00 +15°C° 0 mm 1 mps 725 mmHg 79%
    07:00 +15°C° 0 mm 1 mps 725 mmHg 79%
    08:00 +19°C° 0 mm 1 mps 725 mmHg 71%
    09:00 +21°C° 0 mm 1 mps 725 mmHg 63%
    10:00 +24°C° 0 mm 1 mps 726 mmHg 56%
    11:00 +24°C° 0 mm 1 mps 725 mmHg 56%
    12:00 +25°C° 0 mm 1 mps 725 mmHg 57%
    13:00 +25°C° 0 mm 1 mps 725 mmHg 57%
    14:00 +25°C° 0 mm 1 mps 725 mmHg 59%
    15:00 +24°C° 0 mm 1 mps 724 mmHg 62%
    16:00 +24°C° 0 mm 1 mps 724 mmHg 64%
    17:00 +23°C° 0 mm 1 mps 724 mmHg 70%
    18:00 +21°C° 0 mm 1 mps 724 mmHg 75%
    19:00 +19°C° 0 mm 1 mps 723 mmHg 81%
    20:00 +19°C° 0 mm 1 mps 723 mmHg 83%
    21:00 +18°C° 0 mm 1 mps 724 mmHg 85%
    22:00 +18°C° 0 mm 1 mps 724 mmHg 88%
    23:00 +18°C° 0.4 mm 1 mps 724 mmHg 89%
    Show more